Time,TemperatureF,DewpointF,PressureIn,WindDirection,WindDirectionDegrees,WindSpeedMPH,WindSpeedGustMPH,Humidity,HourlyPrecipIn,Conditions,Clouds,dailyrainin,SoftwareType,DateUTC
2012-05-08 16:15:00,91.0,35.0,29.84,ENE,67,2.0,2.0,14,0.00,,,0.00,,2012-05-08 23:15:00,
2012-05-08 16:25:00,91.0,35.0,29.84,ENE,67,2.0,2.0,14,0.00,,,0.00,,2012-05-08 23:25:00,
2012-05-08 16:39:00,92.0,39.0,29.84,WNW,292,9.0,19.0,16,1.65,,,1.65,,2012-05-08 23:39:00,
2012-05-08 16:48:00,93.0,37.0,29.83,WSW,247,3.0,9.0,14,0.00,,,1.65,,2012-05-08 23:48:00,
2012-05-08 16:54:00,93.0,37.0,29.83,WSW,247,3.0,9.0,14,0.00,,,1.65,,2012-05-08 23:54:00,
2012-05-08 17:03:00,92.0,32.0,29.83,NE,45,4.0,7.0,12,0.00,,,1.65,,2012-05-09 00:03:00,
2012-05-08 17:12:00,92.0,32.0,29.83,NE,45,4.0,7.0,12,0.00,,,1.65,,2012-05-09 00:12:00,
2012-05-08 17:24:00,91.0,35.0,29.82,South,180,4.0,5.0,14,0.00,,,1.65,,2012-05-09 00:24:00,
2012-05-08 17:34:00,91.0,37.0,29.82,South,180,3.0,6.0,15,0.00,,,1.65,,2012-05-09 00:34:00,
2012-05-08 17:45:00,91.0,37.0,29.82,NE,45,6.0,7.0,15,0.00,,,1.65,,2012-05-09 00:45:00,
2012-05-08 17:56:00,91.0,37.0,29.82,NE,45,6.0,7.0,15,0.00,,,1.65,,2012-05-09 00:56:00,
2012-05-08 18:03:00,91.0,40.0,29.81,NE,45,5.0,5.0,17,0.00,,,1.65,,2012-05-09 01:03:00,
2012-05-08 18:13:00,90.0,41.0,29.81,South,180,3.0,8.0,18,0.00,,,1.65,,2012-05-09 01:13:00,
2012-05-08 18:23:00,90.0,41.0,29.81,South,180,3.0,8.0,18,0.00,,,1.65,,2012-05-09 01:23:00,
2012-05-08 18:33:00,90.0,39.0,29.81,South,180,0.0,3.0,17,0.00,,,1.65,,2012-05-09 01:33:00,
2012-05-08 18:44:00,88.0,41.0,29.81,WSW,247,3.0,4.0,19,0.00,,,1.65,,2012-05-09 01:44:00,
2012-05-08 18:58:00,88.0,41.0,29.81,WSW,247,3.0,4.0,19,0.00,,,1.65,,2012-05-09 01:58:00,
2012-05-08 19:24:00,87.0,41.0,29.80,SW,225,0.0,3.0,20,0.00,,,1.65,,2012-05-09 02:24:00,
2012-05-08 19:33:00,86.0,41.0,29.81,SW,225,0.0,0.0,21,0.00,,,1.65,,2012-05-09 02:33:00,
2012-05-08 19:44:00,84.0,45.0,29.81,SW,225,0.0,0.0,26,0.00,,,1.65,,2012-05-09 02:44:00,
2012-05-08 19:57:00,84.0,45.0,29.81,SW,225,0.0,0.0,26,0.00,,,1.65,,2012-05-09 02:57:00,
2012-05-08 20:03:00,83.0,47.0,29.81,SW,225,0.0,0.0,28,0.00,,,1.65,,2012-05-09 03:03:00,
2012-05-08 20:13:00,81.0,50.0,29.81,SW,225,0.0,0.0,34,0.00,,,1.65,,2012-05-09 03:13:00,
2012-05-08 20:23:00,81.0,50.0,29.81,SW,225,0.0,0.0,34,0.00,,,1.65,,2012-05-09 03:23:00,
2012-05-08 20:33:00,80.0,49.0,29.81,SW,225,0.0,0.0,34,0.00,,,1.65,,2012-05-09 03:33:00,
2012-05-08 21:04:00,77.0,48.0,29.82,SW,225,0.0,0.0,36,0.00,,,1.65,,2012-05-09 04:04:00,
2012-05-08 21:13:00,77.0,48.0,29.82,SW,225,0.0,0.0,36,0.00,,,1.65,,2012-05-09 04:13:00,
2012-05-08 21:23:00,76.0,49.0,29.83,SW,225,0.0,0.0,38,0.00,,,1.65,,2012-05-09 04:23:00,
2012-05-08 21:34:00,75.0,48.0,29.83,SW,225,0.0,0.0,38,0.00,,,1.65,,2012-05-09 04:34:00,
2012-05-08 21:43:00,75.0,48.0,29.83,SW,225,0.0,0.0,38,0.00,,,1.65,,2012-05-09 04:43:00,
2012-05-08 21:55:00,74.0,47.0,29.83,SW,225,0.0,0.0,39,0.00,,,1.65,,2012-05-09 04:55:00,
2012-05-08 22:03:00,74.0,48.0,29.84,SW,225,0.0,0.0,40,0.00,,,1.65,,2012-05-09 05:03:00,
2012-05-08 22:12:00,74.0,48.0,29.84,SW,225,0.0,0.0,40,0.00,,,1.65,,2012-05-09 05:12:00,
2012-05-08 22:23:00,73.0,49.0,29.84,SW,225,0.0,0.0,42,0.00,,,1.65,,2012-05-09 05:23:00,
2012-05-08 22:33:00,72.0,48.0,29.84,SW,225,0.0,0.0,42,0.00,,,1.65,,2012-05-09 05:33:00,
2012-05-08 22:43:00,71.0,48.0,29.85,SW,225,0.0,0.0,44,0.00,,,1.65,,2012-05-09 05:43:00,
2012-05-08 22:54:00,71.0,48.0,29.85,SW,225,0.0,0.0,44,0.00,,,1.65,,2012-05-09 05:54:00,
2012-05-08 23:02:00,71.0,49.0,29.85,SW,225,0.0,0.0,45,0.00,,,1.65,,2012-05-09 06:02:00,
2012-05-08 23:12:00,71.0,49.0,29.85,SW,225,0.0,0.0,45,0.00,,,1.65,,2012-05-09 06:12:00,
2012-05-08 23:23:00,70.0,48.0,29.85,SW,225,0.0,0.0,46,0.00,,,1.65,,2012-05-09 06:23:00,
2012-05-08 23:33:00,70.0,47.0,29.85,ENE,67,0.0,0.0,44,0.00,,,1.65,,2012-05-09 06:33:00,
2012-05-08 23:43:00,69.0,46.0,29.84,ENE,67,0.0,5.0,43,0.00,,,1.65,,2012-05-09 06:43:00,
2012-05-08 23:54:00,69.0,46.0,29.84,ENE,67,0.0,5.0,43,0.00,,,1.65,,2012-05-09 06:54:00,